| time (UTC) | temp F | wind direction | speed MPH | gust MPH | rain 1hr in | rain 24hr in | rain mn in | humidity % | barometer mb |
| 20260505022315 | 44 | 166 | 0.0 | 3.0 | 0.31 | 0.13 | 0.13 | 94 | 1017.4 |
| 20260505021812 | 44 | 211 | 2.0 | 2.0 | 0.24 | 0.10 | 0.10 | 94 | 1017.2 |
| 20260505021309 | 45 | 211 | 2.0 | 2.0 | 0.19 | 0.08 | 0.08 | 93 | 1017.1 |
| 20260505020804 | 45 | 205 | 2.0 | 2.0 | 0.12 | 0.06 | 0.06 | 93 | 1017.0 |
| 20260505020300 | 45 | 146 | 1.0 | 2.0 | 0.12 | 0.05 | 0.05 | 93 | 1016.6 |
| 20260505015757 | 46 | 227 | 1.0 | 2.0 | 0.07 | 0.04 | 0.04 | 92 | 1016.4 |
| 20260505015254 | 46 | 186 | 1.0 | 3.0 | 0.00 | 0.03 | 0.03 | 91 | 1016.7 |
| 20260505014751 | 46 | 150 | 1.0 | 2.0 | 0.00 | 0.03 | 0.03 | 90 | 1016.7 |
| 20260505014243 | 47 | 184 | 1.0 | 1.0 | 0.00 | 0.03 | 0.03 | 89 | 1016.5 |
| 20260505013739 | 47 | 72 | 0.0 | 1.0 | 0.05 | 0.03 | 0.03 | 86 | 1016.4 |
| 20260505013236 | 48 | 150 | 0.0 | 2.0 | 0.05 | 0.03 | 0.03 | 81 | 1016.0 |
| 20260505012734 | 49 | 10 | 0.0 | 1.0 | 0.00 | 0.02 | 0.02 | 76 | 1016.1 |
| 20260505012231 | 50 | 92 | 0.0 | 3.0 | 0.00 | 0.02 | 0.02 | 67 | 1016.0 |
| 20260505011727 | 50 | 36 | 0.0 | 1.0 | 0.00 | 0.02 | 0.02 | 68 | 1016.0 |
| 20260505011225 | 50 | 102 | 0.0 | 1.0 | 0.00 | 0.02 | 0.02 | 70 | 1015.8 |
| 20260505010720 | 51 | 121 | 0.0 | 0.0 | 0.00 | 0.02 | 0.02 | 68 | 1016.1 |
| 20260505010217 | 51 | 109 | 0.0 | 1.0 | 0.00 | 0.02 | 0.02 | 67 | 1016.1 |
| 20260505005713 | 51 | 289 | 0.0 | 1.0 | 0.00 | 0.02 | 0.02 | 65 | 1015.8 |
| 20260505005210 | 52 | 46 | 0.0 | 0.0 | 0.00 | 0.02 | 0.02 | 61 | 1015.9 |
| 20260505004707 | 52 | 37 | 0.0 | 1.0 | 0.00 | 0.02 | 0.02 | 61 | 1015.9 |
| 20260505004203 | 52 | 42 | 0.0 | 0.0 | 0.00 | 0.02 | 0.02 | 62 | 1015.9 |
| 20260505003701 | 52 | 38 | 0.0 | 1.0 | 0.00 | 0.02 | 0.02 | 60 | 1015.9 |
| 20260505003159 | 52 | 34 | 0.0 | 2.0 | 0.00 | 0.02 | 0.02 | 61 | 1015.9 |
| 20260505002655 | 52 | 57 | 0.0 | 3.0 | 0.00 | 0.02 | 0.02 | 61 | 1015.9 |
| 20260505002153 | 52 | 43 | 0.0 | 0.0 | 0.00 | 0.02 | 0.02 | 63 | 1015.9 |
| 20260505001649 | 53 | 34 | 0.0 | 0.0 | 0.00 | 0.02 | 0.02 | 64 | 1015.9 |
| 20260505001147 | 53 | 28 | 0.0 | 0.0 | 0.00 | 0.02 | 0.02 | 63 | 1016.0 |
| 20260505000644 | 52 | 325 | 0.0 | 1.0 | 0.00 | 0.02 | 0.02 | 61 | 1015.8 |
| 20260505000142 | 52 | 49 | 0.0 | 0.0 | 0.00 | 0.02 | 0.02 | 66 | 1015.9 |
| 20260504235638 | 52 | 56 | 0.0 | 0.0 | 0.00 | 0.02 | 0.02 | 67 | 1015.9 |
| 20260504235135 | 52 | 56 | 0.0 | 0.0 | 0.00 | 0.02 | 0.02 | 68 | 1015.8 |
| 20260504234632 | 51 | 56 | 0.0 | 0.0 | 0.00 | 0.02 | 0.02 | 69 | 1015.8 |
| 20260504234129 | 51 | 55 | 0.0 | 0.0 | 0.00 | 0.02 | 0.02 | 75 | 1015.5 |
| 20260504233625 | 51 | 68 | 0.0 | 0.0 | 0.00 | 0.02 | 0.02 | 79 | 1015.8 |
| 20260504233121 | 51 | 69 | 0.0 | 0.0 | 0.00 | 0.02 | 0.02 | 75 | 1015.8 |
| 20260504232619 | 51 | 117 | 0.0 | 1.0 | 0.00 | 0.02 | 0.02 | 76 | 1016.0 |
| 20260504232116 | 51 | 89 | 0.0 | 0.0 | 0.00 | 0.02 | 0.02 | 76 | 1015.9 |
| 20260504231612 | 50 | 89 | 0.0 | 1.0 | 0.00 | 0.02 | 0.02 | 77 | 1016.0 |
| 20260504231108 | 50 | 354 | 0.0 | 0.0 | 0.00 | 0.02 | 0.02 | 80 | 1015.8 |
| 20260504230604 | 50 | 68 | 0.0 | 0.0 | 0.00 | 0.02 | 0.02 | 84 | 1015.5 |
| 20260504230104 | 49 | 59 | 0.0 | 1.0 | 0.00 | 0.02 | 0.02 | 87 | 1015.2 |
| 20260504225600 | 49 | 292 | 1.0 | 1.0 | 0.00 | 0.02 | 0.02 | 87 | 1015.5 |
| 20260504225057 | 49 | 33 | 1.0 | 2.0 | 0.00 | 0.02 | 0.02 | 90 | 1015.8 |
| 20260504224554 | 50 | 43 | 0.0 | 0.0 | 0.00 | 0.02 | 0.02 | 90 | 1015.9 |
| 20260504224051 | 49 | 245 | 0.0 | 1.0 | 0.00 | 0.02 | 0.02 | 89 | 1015.9 |
| 20260504223548 | 48 | 315 | 0.0 | 2.0 | 0.00 | 0.02 | 0.02 | 89 | 1016.0 |
| 20260504223043 | 49 | 82 | 0.0 | 0.0 | 0.12 | 0.02 | 0.02 | 89 | 1015.9 |
| 20260504222541 | 50 | 73 | 0.0 | 1.0 | 0.12 | 0.02 | 0.02 | 84 | 1016.5 |
| 20260504222038 | 51 | 82 | 0.0 | 1.0 | 0.00 | 0.00 | 0.00 | 78 | 1016.6 |
| 20260504221535 | 54 | 241 | 3.0 | 5.0 | 0.00 | 0.00 | 0.00 | 61 | 1016.6 |
| 20260504221032 | 55 | 255 | 2.0 | 3.0 | 0.00 | 0.00 | 0.00 | 47 | 1016.4 |
| 20260504220529 | 56 | 94 | 0.0 | 0.0 | 0.00 | 0.00 | 0.00 | 46 | 1015.9 |
| 20260504220026 | 56 | 56 | 0.0 | 1.0 | 0.00 | 0.00 | 0.00 | 46 | 1015.4 |
| 20260504215522 | 56 | 344 | 4.0 | 6.0 | 0.00 | 0.00 | 0.00 | 46 | 1015.2 |
| 20260504215020 | 56 | 40 | 1.0 | 3.0 | 0.00 | 0.00 | 0.00 | 46 | 1014.7 |
| 20260504214515 | 56 | 34 | 1.0 | 2.0 | 0.00 | 0.00 | 0.00 | 47 | 1014.7 |
| 20260504214012 | 56 | 33 | 3.0 | 9.0 | 0.00 | 0.00 | 0.00 | 46 | 1014.9 |
| 20260504213508 | 56 | 76 | 5.0 | 8.0 | 0.00 | 0.00 | 0.00 | 45 | 1014.8 |
| 20260504213006 | 57 | 50 | 3.0 | 13.0 | 0.00 | 0.00 | 0.00 | 44 | 1014.9 |
| 20260504212501 | 57 | 77 | 1.0 | 5.0 | 0.00 | 0.00 | 0.00 | 42 | 1015.0 |
| 20260504211959 | 57 | 353 | 6.0 | 11.0 | 0.00 | 0.00 | 0.00 | 41 | 1015.0 |
| 20260504211455 | 57 | 5 | 2.0 | 10.0 | 0.00 | 0.00 | 0.00 | 41 | 1015.0 |
| 20260504210953 | 57 | 99 | 4.0 | 10.0 | 0.00 | 0.00 | 0.00 | 41 | 1014.9 |
| 20260504210450 | 58 | 1 | 9.0 | 14.0 | 0.00 | 0.00 | 0.00 | 39 | 1015.0 |
| 20260504205947 | 60 | 40 | 3.0 | 10.0 | 0.00 | 0.00 | 0.00 | 37 | 1015.2 |
| 20260504205444 | 61 | 345 | 5.0 | 11.0 | 0.00 | 0.00 | 0.00 | 36 | 1014.8 |
| 20260504204942 | 64 | 4 | 9.0 | 14.0 | 0.00 | 0.00 | 0.00 | 32 | 1014.7 |
| 20260504204440 | 68 | 325 | 5.0 | 8.0 | 0.00 | 0.00 | 0.00 | 27 | 1014.6 |
| 20260504203939 | 68 | 109 | 0.0 | 3.0 | 0.00 | 0.00 | 0.00 | 28 | 1014.3 |
| 20260504203436 | 66 | 5 | 3.0 | 3.0 | 0.00 | 0.00 | 0.00 | 30 | 1014.2 |
| 20260504202932 | 64 | 1 | 1.0 | 8.0 | 0.00 | 0.00 | 0.00 | 32 | 1014.3 |
| 20260504202429 | 64 | 226 | 5.0 | 13.0 | 0.00 | 0.00 | 0.00 | 32 | 1014.4 |
| 20260504201926 | 64 | 170 | 2.0 | 7.0 | 0.00 | 0.00 | 0.00 | 31 | 1014.1 |
| 20260504201423 | 64 | 207 | 6.0 | 10.0 | 0.00 | 0.00 | 0.00 | 32 | 1014.7 |
| 20260504200921 | 62 | 214 | 4.0 | 6.0 | 0.00 | 0.00 | 0.00 | 32 | 1014.6 |
| 20260504200417 | 62 | 248 | 3.0 | 9.0 | 0.00 | 0.00 | 0.00 | 32 | 1014.8 |
| 20260504195914 | 62 | 269 | 3.0 | 6.0 | 0.00 | 0.00 | 0.00 | 34 | 1014.9 |
| 20260504195409 | 62 | 258 | 2.0 | 15.0 | 0.00 | 0.00 | 0.00 | 35 | 1014.9 |
| 20260504194906 | 63 | 86 | 2.0 | 9.0 | 0.00 | 0.00 | 0.00 | 35 | 1014.8 |
| 20260504194402 | 62 | 191 | 5.0 | 7.0 | 0.00 | 0.00 | 0.00 | 35 | 1014.7 |
| 20260504193858 | 62 | 259 | 5.0 | 11.0 | 0.00 | 0.00 | 0.00 | 35 | 1014.8 |
| 20260504193355 | 62 | 206 | 5.0 | 15.0 | 0.00 | 0.00 | 0.00 | 34 | 1014.7 |
| 20260504192854 | 63 | 237 | 5.0 | 8.0 | 0.00 | 0.00 | 0.00 | 30 | 1014.7 |
| 20260504192352 | 64 | 226 | 5.0 | 9.0 | 0.00 | 0.00 | 0.00 | 27 | 1014.8 |
| 20260504191850 | 64 | 207 | 3.0 | 9.0 | 0.00 | 0.00 | 0.00 | 27 | 1014.6 |
| 20260504191348 | 65 | 208 | 3.0 | 8.0 | 0.00 | 0.00 | 0.00 | 28 | 1014.7 |
| 20260504190843 | 64 | 202 | 1.0 | 3.0 | 0.00 | 0.00 | 0.00 | 28 | 1014.2 |
| 20260504190339 | 65 | 180 | 2.0 | 7.0 | 0.00 | 0.00 | 0.00 | 28 | 1014.7 |
| 20260504185836 | 64 | 37 | 1.0 | 1.0 | 0.00 | 0.00 | 0.00 | 30 | 1014.8 |
| 20260504185333 | 64 | 65 | 0.0 | 1.0 | 0.00 | 0.00 | 0.00 | 29 | 1014.8 |
| 20260504184829 | 64 | 117 | 0.0 | 1.0 | 0.00 | 0.00 | 0.00 | 30 | 1014.8 |
| 20260504184325 | 64 | 294 | 2.0 | 5.0 | 0.00 | 0.00 | 0.00 | 30 | 1014.8 |
| 20260504183820 | 65 | 84 | 0.0 | 2.0 | 0.00 | 0.00 | 0.00 | 29 | 1014.9 |
| 20260504183318 | 65 | 223 | 3.0 | 5.0 | 0.00 | 0.00 | 0.00 | 29 | 1014.9 |
| 20260504182816 | 66 | 200 | 1.0 | 5.0 | 0.00 | 0.00 | 0.00 | 29 | 1015.0 |
| 20260504182313 | 66 | 306 | 3.0 | 5.0 | 0.00 | 0.00 | 0.00 | 29 | 1015.2 |
| 20260504181810 | 66 | 63 | 1.0 | 3.0 | 0.00 | 0.00 | 0.00 | 30 | 1015.3 |
| 20260504181307 | 65 | 189 | 3.0 | 8.0 | 0.00 | 0.00 | 0.00 | 29 | 1015.5 |
| 20260504180806 | 64 | 164 | 1.0 | 7.0 | 0.00 | 0.00 | 0.00 | 31 | 1015.6 |
| 20260504180304 | 64 | 84 | 1.0 | 1.0 | 0.00 | 0.00 | 0.00 | 30 | 1015.5 |
| 20260504175802 | 63 | 46 | 0.0 | 1.0 | 0.00 | 0.00 | 0.00 | 33 | 1015.8 |
| 20260504175258 | 62 | 43 | 2.0 | 3.0 | 0.00 | 0.00 | 0.00 | 32 | 1015.8 |
| 20260504174757 | 62 | 52 | 1.0 | 3.0 | 0.00 | 0.00 | 0.00 | 31 | 1016.0 |
| 20260504174254 | 62 | 244 | 1.0 | 3.0 | 0.00 | 0.00 | 0.00 | 32 | 1016.1 |
| 20260504173750 | 62 | 36 | 0.0 | 5.0 | 0.00 | 0.00 | 0.00 | 33 | 1016.1 |
| 20260504173248 | 61 | 67 | 1.0 | 2.0 | 0.00 | 0.00 | 0.00 | 34 | 1016.4 |
| 20260504172744 | 60 | 157 | 1.0 | 2.0 | 0.00 | 0.00 | 0.00 | 34 | 1016.4 |
| 20260504172241 | 60 | 262 | 2.0 | 5.0 | 0.00 | 0.00 | 0.00 | 34 | 1016.3 |
| 20260504171737 | 60 | 34 | 0.0 | 5.0 | 0.00 | 0.00 | 0.00 | 34 | 1016.4 |
| 20260504171234 | 59 | 287 | 0.0 | 1.0 | 0.00 | 0.00 | 0.00 | 34 | 1016.5 |
| 20260504170731 | 59 | 58 | 0.0 | 2.0 | 0.00 | 0.00 | 0.00 | 34 | 1016.3 |
| 20260504170229 | 59 | 294 | 2.0 | 3.0 | 0.00 | 0.00 | 0.00 | 35 | 1016.5 |
| 20260504160147 | 57 | 213 | 2.0 | 2.0 | 0.00 | 0.00 | 0.00 | 37 | 1016.5 |
| 20260504151114 | 57 | 85 | 0.0 | 2.0 | 0.00 | 0.00 | 0.00 | 35 | 1016.6 |
| 20260504150612 | 57 | 33 | 0.0 | 3.0 | 0.00 | 0.00 | 0.00 | 35 | 1016.5 |
| 20260504150109 | 57 | 222 | 2.0 | 7.0 | 0.00 | 0.00 | 0.00 | 35 | 1016.4 |
| 20260504141037 | 56 | 255 | 2.0 | 6.0 | 0.00 | 0.00 | 0.00 | 34 | 1016.7 |
| 20260504140534 | 56 | 220 | 5.0 | 8.0 | 0.00 | 0.00 | 0.00 | 33 | 1016.5 |
| 20260504130458 | 50 | 42 | 0.0 | 0.0 | 0.00 | 0.00 | 0.00 | 37 | 1016.3 |
| 20260504110345 | 49 | 110 | 1.0 | 2.0 | 0.00 | 0.00 | 0.00 | 33 | 1015.8 |
| 20260504100303 | 49 | 302 | 3.0 | 5.0 | 0.00 | 0.00 | 0.00 | 35 | 1016.1 |
| 20260504081656 | 45 | 264 | 1.0 | 3.0 | 0.00 | 0.00 | 0.00 | 39 | 1017.0 |
| 20260504081152 | 44 | 207 | 2.0 | 3.0 | 0.00 | 0.00 | 0.00 | 42 | 1017.1 |
| 20260504080649 | 44 | 239 | 2.0 | 3.0 | 0.00 | 0.00 | 0.00 | 45 | 1016.9 |
| 20260504080145 | 44 | 222 | 2.0 | 3.0 | 0.00 | 0.00 | 0.00 | 43 | 1017.1 |
| 20260504070114 | 42 | 235 | 1.0 | 1.0 | 0.00 | 0.00 | 0.00 | 48 | 1017.7 |
| 20260504050502 | 50 | 323 | 1.0 | 2.0 | 0.00 | 0.00 | 0.00 | 38 | 1018.0 |
| 20260504045959 | 51 | 75 | 0.0 | 1.0 | 0.00 | 0.00 | 0.00 | 38 | 1018.2 |
| 20260504045455 | 51 | 245 | 2.0 | 2.0 | 0.00 | 0.00 | 0.00 | 38 | 1018.1 |
| 20260504044951 | 50 | 222 | 1.0 | 3.0 | 0.00 | 0.00 | 0.00 | 40 | 1018.3 |
| 20260504044449 | 49 | 212 | 2.0 | 5.0 | 0.00 | 0.00 | 0.00 | 41 | 1018.3 |
| 20260504043946 | 50 | 237 | 1.0 | 2.0 | 0.00 | 0.00 | 0.00 | 42 | 1018.3 |
| 20260504043443 | 51 | 260 | 2.0 | 3.0 | 0.00 | 0.00 | 0.00 | 39 | 1018.3 |
| 20260504042940 | 52 | 270 | 1.0 | 2.0 | 0.00 | 0.00 | 0.00 | 38 | 1018.7 |
| 20260504042436 | 51 | 145 | 1.0 | 2.0 | 0.00 | 0.00 | 0.00 | 38 | 1018.3 |
| 20260504041933 | 52 | 169 | 1.0 | 1.0 | 0.00 | 0.00 | 0.00 | 39 | 1018.4 |
| 20260504041429 | 52 | 221 | 1.0 | 3.0 | 0.00 | 0.00 | 0.00 | 39 | 1018.3 |
| 20260504040925 | 52 | 230 | 2.0 | 3.0 | 0.00 | 0.00 | 0.00 | 38 | 1018.7 |
| 20260504040424 | 53 | 10 | 2.0 | 2.0 | 0.00 | 0.00 | 0.00 | 37 | 1018.6 |
| 20260504035919 | 54 | 280 | 2.0 | 5.0 | 0.00 | 0.00 | 0.00 | 37 | 1018.6 |
| 20260504035417 | 53 | 248 | 2.0 | 2.0 | 0.00 | 0.00 | 0.00 | 38 | 1018.6 |
| 20260504034913 | 54 | 317 | 1.0 | 2.0 | 0.00 | 0.00 | 0.00 | 37 | 1018.8 |
| 20260504034411 | 54 | 233 | 1.0 | 2.0 | 0.00 | 0.00 | 0.00 | 36 | 1018.6 |
| 20260504033908 | 54 | 105 | 0.0 | 2.0 | 0.00 | 0.00 | 0.00 | 37 | 1018.8 |
| 20260504033406 | 55 | 246 | 2.0 | 2.0 | 0.00 | 0.00 | 0.00 | 37 | 1018.7 |
| 20260504032902 | 54 | 236 | 1.0 | 2.0 | 0.00 | 0.00 | 0.00 | 37 | 1018.7 |
| 20260504032359 | 55 | 320 | 0.0 | 2.0 | 0.00 | 0.00 | 0.00 | 36 | 1018.8 |
| 20260504031855 | 55 | 136 | 1.0 | 1.0 | 0.00 | 0.00 | 0.00 | 36 | 1018.7 |
| 20260504031353 | 56 | 297 | 2.0 | 2.0 | 0.00 | 0.00 | 0.00 | 35 | 1018.8 |
| 20260504030849 | 56 | 214 | 2.0 | 2.0 | 0.00 | 0.00 | 0.00 | 35 | 1018.8 |
| 20260504030347 | 57 | 250 | 1.0 | 3.0 | 0.00 | 0.00 | 0.00 | 35 | 1018.6 |
| 20260504025843 | 57 | 268 | 1.0 | 2.0 | 0.00 | 0.00 | 0.00 | 34 | 1018.7 |
| 20260504025340 | 57 | 141 | 2.0 | 5.0 | 0.00 | 0.00 | 0.00 | 34 | 1018.4 |
| 20260504024836 | 57 | 57 | 1.0 | 2.0 | 0.00 | 0.00 | 0.00 | 34 | 1018.7 |
| 20260504024333 | 58 | 315 | 1.0 | 1.0 | 0.00 | 0.00 | 0.00 | 33 | 1018.4 |
| 20260504023830 | 58 | 259 | 1.0 | 5.0 | 0.00 | 0.00 | 0.00 | 32 | 1018.3 |
| 20260504023327 | 59 | 159 | 1.0 | 2.0 | 0.00 | 0.00 | 0.00 | 32 | 1018.2 |
| 20260504022822 | 58 | 219 | 0.0 | 5.0 | 0.00 | 0.00 | 0.00 | 32 | 1018.4 |